BEIDOU-3 IGSO-2

Last updated on Jan. 16, 2021, 6:28 a.m. UTC

1 44337U 19035A   21015.45256545 -.00000101  00000-0  00000-0 0  9997
2 44337  55.0916 176.3779 0016497 184.0091  25.2350  1.00277163  5851
UTC
Height (km)
Latitude
Longitude
Inclination
Orbital Period
UTC large
Height (km)
Speed (km/s)
/
Latitude / Longitude
Inclination (degrees)
Orbital Period (minutes)
Azimuth
Elevation
Range (km)
Doppler Factor
iOS Compass Heading
iOS Angle

Next 30 passes for location: Hong Kong

Rise time Rise Azimuth (degrees) Set time Set Azimuth (degrees) Duration Max altitude (degrees)

No matching passes for this satellites